User: anonymous   Login
Location: Austin
(30.3000°N, 97.7500°W)
Time: 22:22:03
(UTC-05:00)
Language:

Cosmos 1666 Rocket - Orbit

View from above orbital plane
View from above orbital plane
View from above satellite
View from above satellite

Ground track
Ground track

The orbit data is extracted from the following two-line orbital elements,

1 15890U 85058B   24200.55043029  .00001155  00000-0  13347-3 0  9998
2 15890  82.5268 357.4349 0019643 327.0052  32.9936 14.84645355 87522
Epoch (UTC): 18 July 2024 13:12:37
Eccentricity: 0.0019643
inclination: 82.5268°
perigee height: 601 km
apogee height: 628 km
right ascension of ascending node: 357.4349°
argument of perigee: 327.0052°
revolutions per day: 14.84645355
mean anomaly at epoch: 32.9936°
orbit number at epoch: 8752

The dashed part of the orbit path shows where the satellite is in the earth's shadow,  

DLR